Time,TemperatureF,DewpointF,PressureIn,WindDirection,WindDirectionDegrees,WindSpeedMPH,WindSpeedGustMPH,Humidity,HourlyPrecipIn,Conditions,Clouds,dailyrainin,SoftwareType,DateUTC
2013-03-15 00:02:00,74.0,74.0,29.75,North,1,0.0,2.0,99,0.00,,,0.01,,2013-03-14 14:02:00,
2013-03-15 00:11:00,74.0,74.0,29.75,North,1,0.0,2.0,99,0.00,,,0.01,,2013-03-14 14:11:00,
2013-03-15 00:22:00,74.0,74.0,29.75,North,0,0.0,0.0,99,0.00,,,0.01,,2013-03-14 14:22:00,
2013-03-15 00:31:00,73.0,73.0,29.75,North,0,0.0,0.0,99,0.00,,,0.01,,2013-03-14 14:31:00,
2013-03-15 00:42:00,73.0,73.0,29.75,North,0,0.0,0.0,99,0.00,,,0.01,,2013-03-14 14:42:00,
2013-03-15 00:52:00,73.0,73.0,29.75,North,0,0.0,0.0,99,0.00,,,0.01,,2013-03-14 14:52:00,
2013-03-15 01:01:00,72.0,72.0,29.75,North,0,0.0,0.0,99,0.00,,,0.01,,2013-03-14 15:01:00,
2013-03-15 01:11:00,72.0,72.0,29.75,North,0,0.0,0.0,99,0.00,,,0.01,,2013-03-14 15:11:00,
2013-03-15 01:22:00,72.0,72.0,29.74,North,0,0.0,0.0,99,0.00,,,0.00,,2013-03-14 15:22:00,
2013-03-15 01:32:00,72.0,72.0,29.74,North,0,0.0,0.0,99,0.00,,,0.00,,2013-03-14 15:32:00,
2013-03-15 01:42:00,72.0,72.0,29.74,North,0,0.0,0.0,99,0.00,,,0.00,,2013-03-14 15:42:00,
2013-03-15 01:52:00,72.0,72.0,29.74,North,0,0.0,0.0,99,0.00,,,0.00,,2013-03-14 15:52:00,
2013-03-15 02:02:00,72.0,72.0,29.73,North,0,0.0,0.0,99,0.00,,,0.00,,2013-03-14 16:02:00,
2013-03-15 02:12:00,72.0,72.0,29.73,North,0,0.0,0.0,99,0.00,,,0.00,,2013-03-14 16:12:00,
2013-03-15 02:22:00,72.0,72.0,29.73,North,0,0.0,0.0,99,0.00,,,0.00,,2013-03-14 16:22:00,
2013-03-15 02:32:00,72.0,72.0,29.72,NW,314,0.0,2.0,99,0.00,,,0.00,,2013-03-14 16:32:00,
2013-03-15 02:42:00,72.0,72.0,29.72,NW,314,0.0,2.0,99,0.00,,,0.00,,2013-03-14 16:42:00,
2013-03-15 02:52:00,72.0,72.0,29.72,NW,314,0.0,1.0,99,0.00,,,0.00,,2013-03-14 16:52:00,
2013-03-15 03:01:00,72.0,72.0,29.73,NW,314,0.0,1.0,99,0.00,,,0.00,,2013-03-14 17:01:00,
2013-03-15 03:10:00,71.0,71.0,29.73,NW,314,0.0,1.0,99,0.00,,,0.00,,2013-03-14 17:10:00,
2013-03-15 03:12:00,72.0,72.0,29.73,NW,314,0.0,1.0,99,0.00,,,0.00,,2013-03-14 17:12:00,
2013-03-15 03:22:00,72.0,72.0,29.73,NW,314,0.0,1.0,99,0.00,,,0.00,,2013-03-14 17:22:00,
2013-03-15 03:31:00,71.0,71.0,29.73,NW,314,0.0,1.0,99,0.00,,,0.00,,2013-03-14 17:31:00,
2013-03-15 03:41:00,71.0,71.0,29.73,NW,314,0.0,1.0,99,0.00,,,0.00,,2013-03-14 17:41:00,
2013-03-15 03:52:00,71.0,71.0,29.73,NW,314,0.0,1.0,99,0.00,,,0.00,,2013-03-14 17:52:00,
2013-03-15 04:02:00,71.0,71.0,29.73,NW,314,0.0,1.0,99,0.00,,,0.00,,2013-03-14 18:02:00,
2013-03-15 04:22:00,70.0,70.0,29.74,NE,45,0.0,1.0,99,0.00,,,0.00,,2013-03-14 18:22:00,
2013-03-15 04:32:00,70.0,70.0,29.74,NE,45,0.0,1.0,99,0.00,,,0.00,,2013-03-14 18:32:00,
2013-03-15 04:42:00,70.0,70.0,29.74,NE,45,0.0,1.0,99,0.00,,,0.00,,2013-03-14 18:42:00,
2013-03-15 04:52:00,71.0,71.0,29.74,NNW,340,0.0,1.0,99,0.00,,,0.00,,2013-03-14 18:52:00,
2013-03-15 05:02:00,71.0,71.0,29.74,NW,322,0.0,2.0,99,0.00,,,0.00,,2013-03-14 19:02:00,
2013-03-15 05:12:00,71.0,71.0,29.74,NW,322,0.0,2.0,99,0.00,,,0.00,,2013-03-14 19:12:00,
2013-03-15 05:22:00,70.0,70.0,29.75,NW,314,0.0,1.0,99,0.00,,,0.00,,2013-03-14 19:22:00,
2013-03-15 05:32:00,70.0,70.0,29.75,NW,314,0.0,1.0,99,0.00,,,0.00,,2013-03-14 19:32:00,
2013-03-15 05:42:00,70.0,70.0,29.75,NW,314,0.0,1.0,99,0.00,,,0.00,,2013-03-14 19:42:00,
2013-03-15 05:52:00,70.0,70.0,29.76,North,0,0.0,0.0,99,0.00,,,0.00,,2013-03-14 19:52:00,
2013-03-15 06:01:00,70.0,70.0,29.76,North,0,0.0,0.0,99,0.00,,,0.00,,2013-03-14 20:01:00,
2013-03-15 06:11:00,70.0,70.0,29.76,North,0,0.0,0.0,99,0.00,,,0.00,,2013-03-14 20:11:00,
2013-03-15 06:22:00,70.0,70.0,29.76,NW,314,0.0,2.0,99,0.00,,,0.00,,2013-03-14 20:22:00,
2013-03-15 06:31:00,71.0,71.0,29.76,NW,314,0.0,2.0,99,0.00,,,0.00,,2013-03-14 20:31:00,
2013-03-15 06:42:00,71.0,71.0,29.76,NW,314,0.0,2.0,99,0.00,,,0.00,,2013-03-14 20:42:00,
2013-03-15 06:52:00,71.0,71.0,29.77,NW,314,0.0,2.0,99,0.00,,,0.00,,2013-03-14 20:52:00,
2013-03-15 07:02:00,71.0,71.0,29.77,NW,314,0.0,2.0,99,0.00,,,0.00,,2013-03-14 21:02:00,
2013-03-15 07:12:00,71.0,71.0,29.77,NW,314,0.0,2.0,99,0.00,,,0.00,,2013-03-14 21:12:00,
2013-03-15 07:22:00,72.0,72.0,29.78,NW,314,0.0,2.0,99,0.00,,,0.00,,2013-03-14 21:22:00,
2013-03-15 07:32:00,73.0,73.0,29.79,NW,314,0.0,2.0,99,0.00,,,0.00,,2013-03-14 21:32:00,
2013-03-15 07:43:00,73.0,73.0,29.79,NW,314,0.0,2.0,99,0.00,,,0.00,,2013-03-14 21:43:00,
2013-03-15 07:53:00,78.0,78.0,29.79,NW,314,0.0,2.0,99,0.00,,,0.00,,2013-03-14 21:53:00,
2013-03-15 08:03:00,80.0,80.0,29.79,NW,314,0.0,2.0,99,0.00,,,0.00,,2013-03-14 22:03:00,
2013-03-15 08:12:00,80.0,80.0,29.79,NW,314,0.0,2.0,99,0.00,,,0.00,,2013-03-14 22:12:00,
2013-03-15 08:23:00,80.0,80.0,29.79,NW,314,0.0,2.0,99,0.00,,,0.00,,2013-03-14 22:23:00,
2013-03-15 08:32:00,83.0,83.0,29.80,NW,318,0.0,2.0,99,0.00,,,0.00,,2013-03-14 22:32:00,
2013-03-15 08:42:00,83.0,83.0,29.80,NW,318,0.0,2.0,99,0.00,,,0.00,,2013-03-14 22:42:00,
2013-03-15 08:52:00,86.0,81.0,29.81,NW,318,0.0,2.0,85,0.00,,,0.00,,2013-03-14 22:52:00,
2013-03-15 09:02:00,87.0,79.0,29.80,NW,326,0.0,2.0,78,0.00,,,0.00,,2013-03-14 23:02:00,
2013-03-15 09:21:00,89.0,79.0,29.80,NNW,345,0.0,3.0,73,0.00,,,0.00,,2013-03-14 23:21:00,
2013-03-15 09:32:00,89.0,79.0,29.80,NNW,345,0.0,3.0,73,0.00,,,0.00,,2013-03-14 23:32:00,
2013-03-15 09:42:00,89.0,79.0,29.80,NNW,345,0.0,3.0,73,0.00,,,0.00,,2013-03-14 23:42:00,
2013-03-15 09:52:00,93.0,79.0,29.81,North,352,0.0,2.0,63,0.00,,,0.00,,2013-03-14 23:52:00,
2013-03-15 10:02:00,92.0,77.0,29.82,NW,310,0.0,2.0,62,0.00,,,0.00,,2013-03-15 00:02:00,
2013-03-15 10:12:00,91.0,76.0,29.81,NW,310,0.0,4.0,62,0.00,,,0.00,,2013-03-15 00:12:00,
2013-03-15 10:22:00,91.0,76.0,29.81,NW,310,0.0,4.0,62,0.00,,,0.00,,2013-03-15 00:22:00,
2013-03-15 10:31:00,92.0,77.0,29.80,NW,314,0.0,2.0,62,0.00,,,0.00,,2013-03-15 00:31:00,
2013-03-15 10:42:00,92.0,77.0,29.80,NW,314,0.0,2.0,62,0.00,,,0.00,,2013-03-15 00:42:00,
2013-03-15 10:52:00,94.0,77.0,29.80,NW,310,0.0,2.0,59,0.00,,,0.00,,2013-03-15 00:52:00,
2013-03-15 11:01:00,95.0,76.0,29.80,WSW,239,0.0,4.0,54,0.00,,,0.00,,2013-03-15 01:01:00,
2013-03-15 11:11:00,95.0,76.0,29.80,WSW,239,0.0,4.0,54,0.00,,,0.00,,2013-03-15 01:11:00,
2013-03-15 11:21:00,93.0,75.0,29.79,SSE,161,0.0,5.0,56,0.00,,,0.00,,2013-03-15 01:21:00,
2013-03-15 11:32:00,93.0,75.0,29.79,SSE,161,0.0,5.0,56,0.00,,,0.00,,2013-03-15 01:32:00,
2013-03-15 11:42:00,93.0,75.0,29.79,SSE,161,0.0,5.0,56,0.00,,,0.00,,2013-03-15 01:42:00,
2013-03-15 11:52:00,95.0,75.0,29.78,SSW,206,1.0,6.0,52,0.00,,,0.00,,2013-03-15 01:52:00,
2013-03-15 12:02:00,94.0,74.0,29.78,SSE,148,2.0,5.0,52,0.00,,,0.00,,2013-03-15 02:02:00,
2013-03-15 12:12:00,94.0,74.0,29.78,SSE,148,2.0,5.0,52,0.00,,,0.00,,2013-03-15 02:12:00,
2013-03-15 12:22:00,95.0,76.0,29.77,SSE,155,2.0,6.0,54,0.00,,,0.00,,2013-03-15 02:22:00,
2013-03-15 12:32:00,95.0,76.0,29.77,SSE,155,2.0,6.0,54,0.00,,,0.00,,2013-03-15 02:32:00,
2013-03-15 12:42:00,95.0,76.0,29.77,SSE,155,2.0,6.0,54,0.00,,,0.00,,2013-03-15 02:42:00,
2013-03-15 12:52:00,94.0,74.0,29.76,SE,145,2.0,8.0,53,0.00,,,0.00,,2013-03-15 02:52:00,
2013-03-15 13:01:00,96.0,75.0,29.75,SSE,153,0.0,6.0,52,0.00,,,0.00,,2013-03-15 03:01:00,
2013-03-15 13:11:00,96.0,75.0,29.75,SSE,153,0.0,6.0,52,0.00,,,0.00,,2013-03-15 03:11:00,
2013-03-15 13:22:00,96.0,75.0,29.75,South,176,2.0,8.0,51,0.00,,,0.00,,2013-03-15 03:22:00,
2013-03-15 13:32:00,96.0,75.0,29.75,South,176,2.0,8.0,51,0.00,,,0.00,,2013-03-15 03:32:00,
2013-03-15 13:42:00,96.0,75.0,29.75,South,176,2.0,8.0,51,0.00,,,0.00,,2013-03-15 03:42:00,
2013-03-15 13:52:00,93.0,77.0,29.73,SE,145,2.0,7.0,59,0.00,,,0.00,,2013-03-15 03:52:00,
2013-03-15 14:03:00,96.0,75.0,29.72,SSE,156,2.0,6.0,51,0.00,,,0.00,,2013-03-15 04:03:00,
2013-03-15 14:12:00,96.0,75.0,29.72,SSE,156,2.0,6.0,51,0.00,,,0.00,,2013-03-15 04:12:00,
2013-03-15 14:22:00,98.0,70.0,29.72,East,87,1.0,5.0,41,0.00,,,0.00,,2013-03-15 04:22:00,
2013-03-15 14:32:00,98.0,72.0,29.71,SE,145,1.0,8.0,43,0.00,,,0.00,,2013-03-15 04:32:00,
2013-03-15 14:42:00,98.0,72.0,29.71,SE,145,1.0,8.0,43,0.00,,,0.00,,2013-03-15 04:42:00,
2013-03-15 14:53:00,99.0,69.0,29.71,WSW,239,2.0,8.0,38,0.00,,,0.00,,2013-03-15 04:53:00,
2013-03-15 15:02:00,98.0,70.0,29.71,SSE,150,1.0,8.0,40,0.00,,,0.00,,2013-03-15 05:02:00,
2013-03-15 15:12:00,98.0,70.0,29.71,SSE,150,1.0,8.0,40,0.00,,,0.00,,2013-03-15 05:12:00,
2013-03-15 15:22:00,99.0,68.0,29.71,WSW,253,0.0,7.0,37,0.00,,,0.00,,2013-03-15 05:22:00,
2013-03-15 15:32:00,99.0,68.0,29.70,WNW,301,1.0,7.0,37,0.00,,,0.00,,2013-03-15 05:32:00,
2013-03-15 15:42:00,99.0,68.0,29.70,WNW,301,1.0,7.0,37,0.00,,,0.00,,2013-03-15 05:42:00,
2013-03-15 15:52:00,96.0,60.0,29.70,West,277,2.0,9.0,31,0.00,,,0.00,,2013-03-15 05:52:00,
2013-03-15 16:01:00,96.0,64.0,29.70,WNW,301,0.0,9.0,35,0.00,,,0.00,,2013-03-15 06:01:00,
2013-03-15 16:11:00,96.0,64.0,29.70,WNW,301,0.0,9.0,35,0.00,,,0.00,,2013-03-15 06:11:00,
2013-03-15 16:22:00,96.0,62.0,29.70,NW,307,2.0,9.0,33,0.00,,,0.00,,2013-03-15 06:22:00,
2013-03-15 16:32:00,96.0,61.0,29.70,WNW,294,1.0,8.0,32,0.00,,,0.00,,2013-03-15 06:32:00,
2013-03-15 16:42:00,96.0,61.0,29.70,WNW,294,1.0,8.0,32,0.00,,,0.00,,2013-03-15 06:42:00,
2013-03-15 16:52:00,93.0,60.0,29.70,NW,320,0.0,4.0,33,0.00,,,0.00,,2013-03-15 06:52:00,
2013-03-15 17:01:00,93.0,60.0,29.70,NW,320,0.0,4.0,33,0.00,,,0.00,,2013-03-15 07:01:00,
2013-03-15 17:12:00,93.0,60.0,29.70,NW,320,0.0,4.0,33,0.00,,,0.00,,2013-03-15 07:12:00,
2013-03-15 17:21:00,88.0,63.0,29.71,WNW,299,0.0,7.0,43,0.00,,,0.00,,2013-03-15 07:21:00,
2013-03-15 17:31:00,88.0,63.0,29.71,NW,317,1.0,3.0,43,0.00,,,0.00,,2013-03-15 07:31:00,
2013-03-15 17:42:00,88.0,63.0,29.71,NW,317,1.0,3.0,43,0.00,,,0.00,,2013-03-15 07:42:00,
2013-03-15 17:52:00,87.0,64.0,29.71,NW,309,1.0,4.0,46,0.00,,,0.00,,2013-03-15 07:52:00,
2013-03-15 18:02:00,86.0,65.0,29.72,NW,312,0.0,3.0,49,0.00,,,0.00,,2013-03-15 08:02:00,
2013-03-15 18:12:00,86.0,65.0,29.72,NW,312,0.0,3.0,49,0.00,,,0.00,,2013-03-15 08:12:00,
2013-03-15 18:22:00,86.0,66.0,29.72,NW,313,0.0,3.0,52,0.00,,,0.00,,2013-03-15 08:22:00,
2013-03-15 18:31:00,85.0,66.0,29.73,NW,314,0.0,2.0,53,0.00,,,0.00,,2013-03-15 08:31:00,
2013-03-15 18:41:00,85.0,66.0,29.73,NW,314,0.0,2.0,53,0.00,,,0.00,,2013-03-15 08:41:00,
2013-03-15 18:52:00,83.0,67.0,29.75,NW,314,0.0,2.0,58,0.00,,,0.00,,2013-03-15 08:52:00,
2013-03-15 19:01:00,82.0,67.0,29.75,NW,314,0.0,3.0,61,0.00,,,0.00,,2013-03-15 09:01:00,
2013-03-15 19:11:00,82.0,67.0,29.75,NW,314,0.0,3.0,61,0.00,,,0.00,,2013-03-15 09:11:00,
2013-03-15 19:21:00,82.0,69.0,29.76,NW,305,0.0,2.0,64,0.00,,,0.00,,2013-03-15 09:21:00,
2013-03-15 19:33:00,82.0,69.0,29.77,NW,314,0.0,4.0,66,0.00,,,0.00,,2013-03-15 09:33:00,
2013-03-15 19:42:00,82.0,69.0,29.77,NW,314,0.0,4.0,66,0.00,,,0.00,,2013-03-15 09:42:00,
2013-03-15 19:53:00,82.0,70.0,29.78,NW,314,0.0,2.0,68,0.00,,,0.00,,2013-03-15 09:53:00,
2013-03-15 20:02:00,81.0,71.0,29.78,NW,314,0.0,3.0,71,0.00,,,0.00,,2013-03-15 10:02:00,
2013-03-15 20:12:00,81.0,71.0,29.78,NW,314,0.0,3.0,71,0.00,,,0.00,,2013-03-15 10:12:00,
2013-03-15 20:23:00,80.0,71.0,29.79,NW,314,0.0,1.0,73,0.00,,,0.00,,2013-03-15 10:23:00,
2013-03-15 20:32:00,80.0,70.0,29.79,NW,314,0.0,1.0,72,0.00,,,0.00,,2013-03-15 10:32:00,
2013-03-15 20:42:00,80.0,70.0,29.79,NW,314,0.0,1.0,72,0.00,,,0.00,,2013-03-15 10:42:00,
2013-03-15 20:52:00,79.0,69.0,29.80,NW,314,0.0,2.0,72,0.00,,,0.00,,2013-03-15 10:52:00,
2013-03-15 21:02:00,79.0,70.0,29.81,North,0,0.0,0.0,73,0.00,,,0.00,,2013-03-15 11:02:00,
2013-03-15 21:12:00,79.0,70.0,29.81,North,0,0.0,0.0,73,0.00,,,0.00,,2013-03-15 11:12:00,
2013-03-15 21:22:00,78.0,70.0,29.81,North,0,0.0,0.0,76,0.00,,,0.00,,2013-03-15 11:22:00,
2013-03-15 21:32:00,78.0,70.0,29.82,North,0,0.0,0.0,77,0.00,,,0.00,,2013-03-15 11:32:00,
2013-03-15 21:41:00,78.0,70.0,29.82,North,0,0.0,0.0,77,0.00,,,0.00,,2013-03-15 11:41:00,
2013-03-15 21:52:00,77.0,71.0,29.83,North,0,0.0,0.0,82,0.00,,,0.00,,2013-03-15 11:52:00,
2013-03-15 22:01:00,77.0,71.0,29.83,NW,314,0.0,2.0,81,0.00,,,0.00,,2013-03-15 12:01:00,
2013-03-15 22:12:00,77.0,71.0,29.83,NW,314,0.0,2.0,81,0.00,,,0.00,,2013-03-15 12:12:00,
2013-03-15 22:22:00,77.0,70.0,29.83,WNW,298,0.0,2.0,80,0.00,,,0.00,,2013-03-15 12:22:00,
2013-03-15 22:31:00,76.0,72.0,29.83,North,0,0.0,0.0,88,0.00,,,0.00,,2013-03-15 12:31:00,
2013-03-15 22:42:00,76.0,72.0,29.83,North,0,0.0,0.0,88,0.00,,,0.00,,2013-03-15 12:42:00,
2013-03-15 22:52:00,74.0,73.0,29.84,North,0,0.0,0.0,97,0.00,,,0.00,,2013-03-15 12:52:00,
2013-03-15 23:02:00,74.0,74.0,29.84,North,0,0.0,0.0,99,0.00,,,0.00,,2013-03-15 13:02:00,
2013-03-15 23:12:00,74.0,74.0,29.84,North,0,0.0,0.0,99,0.00,,,0.00,,2013-03-15 13:12:00,
2013-03-15 23:22:00,73.0,73.0,29.83,North,1,0.0,1.0,99,0.00,,,0.00,,2013-03-15 13:22:00,
2013-03-15 23:31:00,73.0,73.0,29.83,NNW,342,0.0,1.0,99,0.00,,,0.00,,2013-03-15 13:31:00,
2013-03-15 23:41:00,73.0,73.0,29.83,NNW,342,0.0,1.0,99,0.00,,,0.00,,2013-03-15 13:41:00,
2013-03-15 23:52:00,72.0,72.0,29.83,North,0,0.0,0.0,99,0.00,,,0.00,,2013-03-15 13:52:00,